Preview of NWS' New Version of Forecast
This preview is not operational and should not be used for support decisions.

Regional Weather Roundup (RWR)

Issued by National Weather Service (NWS)

                            
000
ASPQ40 PGUM 182210
RWRPQ 
WEATHER ROUNDUP FOR THE MARIANAS AND MICRONESIA
NATIONAL WEATHER SERVICE TIYAN GU
800 AM CHST WED JUN 19 2019

GUZ001>004-182300-
MARIANA ISLANDS-
  
CITY           SKY/WX    TMP DP  RH WIND       PRES   REMARKS
GUAM AIRPORT   PTSUNNY   84  73  70 E10       29.88R HX  91           
ANDERSEN AFB   PTSUNNY   82  75  78 E8        29.89R                  
ROTA AIRPORT   MOSUNNY   82  73  74 E12       29.87R                  
TINIAN AP      MOSUNNY   84  72  65 E12       29.86S                  
SAIPAN AP      MOSUNNY   84  73  70 E16       29.87S HX  91           

$$

PMZ161-182300-
REPUBLIC OF PALAU-
  
CITY           SKY/WX    TMP DP  RH WIND       PRES   REMARKS
KOROR AP       PTSUNNY   79  75  89 N3        29.80R                  
KOROR WSO      NOT AVBL                                               

$$

PMZ171>174-182300-
FEDERATED STATES OF MICRONESIA-
  
CITY           SKY/WX    TMP DP  RH WIND       PRES   REMARKS
YAP AIRPORT    PTSUNNY   84  79  84 VRB2      29.80S HX  96           
CHUUK AP       CLOUDY    81  75  83 E9        29.84R                  
POHNPEI AP     CLOUDY    79  77  94 E3        29.85R                  
POHNPEI WSO    CLOUDY    79  77  94 E3        29.88R                  
KOSRAE AP      PTSUNNY   88  77  70 NE9       29.82  HX 100           

$$

PMZ181-182300-
REPUBLIC OF THE MARSHALL ISLANDS-
  
CITY           SKY/WX    TMP DP  RH WIND       PRES   REMARKS
KWAJALEIN AP   MOSUNNY   86  75  70 E13       29.84R HX  95           
MAJURO AP      NOT AVBL                                               
MAJURO WSO     PTSUNNY   86  77  74 E9        29.80S HX  97           

$$